"startDT [UTC]","vpos","CH4 [ppm]","stdev(CH4) [ppm]","CO2 [ppm]","stdev(CO2) [ppm]","H2O_reported [%]","stdev(H2O_reported)","CavityPressure [torr]","CavityTemp [C]","OutletValve","CH4_dry [ppm]","CO2_dry [ppm]","DasTemp [C]","EtalonTemp [C]","WarmBoxTemp [C]","MPVPosition","T_ECpre [C]","T_EC1 [C]","T_EC2 [C]","p_inlet [hPa]","p_in [hPa]","p_out [hPa]","T_inlet [C]","RH_inlet [%]","dwpt_inlet [C]","T_vent [C]","RH_vent [%]","dwpt_vent [C]","flow_vent [l min-1]","flow_inlet [l min-1]","dwpt_sample [C]","T_room [C]"
2015-06-03 00:00:00,3.0,1.88440,0.02557,399.008,1.976,0.1737,0.2458,139.727,45.000,31145.32169,1.89325,400.197,32.625,45.068,45.000,0.00,0.09,-272.72,-272.79,-6,474,-5,23.4,19.1,-1.5,23.1,19.6,-1.3,5.73,1.87,-3.9,27.4
2015-06-03 00:01:00,3.0,1.87563,0.00034,396.974,0.040,0.0305,0.0020,139.995,45.000,30938.78705,1.87613,397.123,32.625,45.068,45.000,0.00,0.09,-272.72,-272.79,-6,474,-5,23.4,19.2,-1.4,23.1,19.8,-1.2,5.73,1.92,-3.9,27.4
2015-06-03 00:02:00,3.0,1.87578,0.00030,397.105,0.096,0.0285,0.0023,139.997,45.000,30884.94247,1.87630,397.234,32.618,45.068,45.000,0.00,0.09,-272.71,-272.78,-6,474,-5,23.4,19.3,-1.3,23.1,19.8,-1.2,5.73,1.92,-4.0,27.4
2015-06-03 00:03:00,3.0,1.87592,0.00032,397.351,0.060,0.0240,0.0026,140.000,45.000,30839.45429,1.87636,397.462,32.591,45.068,45.000,0.00,0.09,-272.72,-272.78,-6,474,-5,23.4,19.3,-1.3,23.1,19.9,-1.1,5.73,1.93,-4.0,27.5
2015-06-03 00:04:00,3.0,1.87604,0.00044,397.464,0.048,0.0190,0.0020,140.000,45.000,30803.20169,1.87638,397.551,32.574,45.068,45.000,0.00,0.09,-272.73,-272.78,-6,474,-5,23.4,19.3,-1.3,23.1,19.9,-1.1,5.73,1.93,-3.9,27.5
2015-06-03 00:05:00,3.0,1.87624,0.00030,397.481,0.029,0.0142,0.0021,139.999,45.000,30772.62554,1.87649,397.551,32.571,45.068,45.000,0.00,0.10,-272.72,-272.78,-6,475,-5,23.4,19.4,-1.2,23.1,20.0,-1.1,5.73,1.93,-4.0,27.4
2015-06-03 00:06:00,3.0,1.87615,0.00035,397.509,0.039,0.0117,0.0021,139.995,45.000,30746.56428,1.87637,397.565,32.578,45.068,45.000,0.00,0.10,-272.72,-272.78,-6,475,-5,23.4,19.6,-1.1,23.1,20.1,-1.0,5.73,1.93,-3.9,27.4
2015-06-03 00:07:00,3.0,1.87616,0.00043,397.511,0.020,0.0100,0.0022,139.996,45.000,30727.22257,1.87634,397.560,32.567,45.068,45.000,0.00,0.09,-272.73,-272.79,-6,475,-5,23.4,19.5,-1.2,23.1,20.2,-1.0,5.73,1.93,-3.9,27.5
2015-06-03 00:08:00,3.0,1.87616,0.00030,397.534,0.036,0.0085,0.0019,139.995,45.000,30712.06410,1.87636,397.571,32.566,45.068,45.000,0.00,0.09,-272.72,-272.78,-6,475,-5,23.4,19.5,-1.2,23.1,20.1,-1.0,5.73,1.93,-3.9,27.4
2015-06-03 00:09:00,3.0,1.87602,0.00038,397.542,0.036,0.0068,0.0016,139.998,45.000,30698.62361,1.87614,397.576,32.574,45.068,45.000,0.00,0.09,-272.72,-272.77,-6,476,-5,23.4,19.6,-1.1,23.2,20.2,-0.9,5.73,1.93,-4.0,27.4
2015-06-03 00:10:00,3.0,1.87596,0.00028,397.534,0.028,0.0063,0.0012,139.996,45.000,30687.09158,1.87607,397.563,32.585,45.068,45.000,0.00,0.32,-270.80,-271.17,-6,476,-5,23.4,19.5,-1.2,23.2,20.1,-0.9,5.43,1.97,-7.1,27.4
2015-06-03 00:11:00,3.0,1.87629,0.00038,397.554,0.032,0.0046,0.0016,140.000,45.000,30679.42861,1.87635,397.578,32.600,45.068,45.000,0.00,0.09,-272.73,-272.78,-6,476,-5,23.5,19.4,-1.2,23.2,20.0,-1.0,5.73,1.93,-3.9,27.4
2015-06-03 00:12:00,3.0,1.87626,0.00037,397.560,0.036,0.0053,0.0017,139.997,45.000,30670.48522,1.87638,397.584,32.619,45.068,45.000,0.00,0.09,-272.72,-272.78,-6,476,-5,23.5,19.5,-1.1,23.2,20.1,-1.0,5.73,1.93,-3.9,27.4
2015-06-03 00:13:00,3.0,1.87626,0.00035,397.583,0.029,0.0041,0.0017,139.996,45.000,30662.54022,1.87633,397.601,32.625,45.068,45.000,0.00,0.09,-272.72,-272.78,-6,477,-5,23.4,19.4,-1.3,23.2,19.9,-1.1,5.73,1.93,-3.9,27.4
2015-06-03 00:14:00,3.0,1.87626,0.00029,397.567,0.031,0.0036,0.0035,139.998,45.000,30658.72171,1.87630,397.586,32.624,45.068,45.000,0.00,0.09,-272.73,-272.79,-6,477,-5,23.5,19.3,-1.3,23.2,19.8,-1.1,5.73,1.93,-3.9,27.4
2015-06-03 00:15:00,3.0,1.87623,0.00037,397.558,0.026,0.0041,0.0011,139.999,45.000,30655.20523,1.87625,397.577,32.625,45.068,45.000,0.00,0.09,-272.72,-272.78,-6,477,-5,23.5,19.3,-1.3,23.2,19.9,-1.1,5.73,1.93,-3.9,27.4
2015-06-03 00:16:00,3.0,1.87616,0.00041,397.567,0.037,0.0045,0.0019,139.999,45.000,30653.38880,1.87632,397.590,32.626,45.068,45.000,0.00,0.09,-272.72,-272.78,-6,478,-5,23.5,19.4,-1.2,23.2,20.0,-1.0,5.73,1.92,-3.9,27.4
2015-06-03 00:17:00,3.0,1.87605,0.00041,397.552,0.019,0.0022,0.0019,139.999,45.000,30651.31638,1.87608,397.561,32.626,45.068,45.000,0.00,0.09,-272.73,-272.79,-6,478,-5,23.5,19.5,-1.2,23.2,20.0,-1.0,5.73,1.92,-3.9,27.4
2015-06-03 00:18:00,3.0,1.87630,0.00034,397.581,0.025,0.0022,0.0020,140.004,45.000,30648.52579,1.87631,397.591,32.626,45.068,45.000,0.00,0.09,-272.72,-272.78,-6,478,-5,23.5,19.4,-1.2,23.2,19.9,-1.0,5.73,1.92,-3.9,27.4
2015-06-03 00:19:00,3.0,1.87644,0.00050,397.566,0.033,0.0035,0.0028,139.998,45.000,30645.56998,1.87652,397.581,32.628,45.068,45.000,0.00,0.10,-272.72,-272.78,-6,478,-5,23.5,19.4,-1.2,23.2,20.0,-1.0,5.73,1.92,-3.9,27.4
2015-06-03 00:20:00,0.0,1.95202,0.02476,402.671,1.855,0.5974,0.2442,140.107,45.000,33686.83487,1.95833,405.316,32.634,45.068,45.000,0.00,0.10,-272.72,-272.78,-7,982,-5,23.5,19.4,-1.2,23.3,19.9,-1.0,5.73,1.96,-3.9,27.4
2015-06-03 00:21:00,0.0,1.96128,0.00065,403.334,0.037,0.7237,0.0041,140.008,45.000,33913.07408,1.97562,406.926,32.651,45.068,45.000,0.00,0.09,-272.73,-272.79,-6,982,-5,23.5,19.4,-1.1,23.3,20.0,-0.9,5.73,1.95,-3.9,27.5
2015-06-03 00:22:00,0.0,1.96081,0.00035,403.315,0.022,0.7228,0.0026,140.001,45.000,33973.46612,1.97504,406.901,32.642,45.068,45.000,0.00,0.09,-272.72,-272.77,-6,983,-5,23.5,19.3,-1.2,23.3,20.0,-1.0,5.73,1.95,-3.9,27.4
2015-06-03 00:23:00,0.0,1.96112,0.00056,403.358,0.038,0.7202,0.0028,140.006,45.000,34020.11488,1.97537,406.931,32.627,45.068,45.000,0.00,0.09,-272.72,-272.78,-6,983,-5,23.5,19.2,-1.3,23.3,19.9,-1.1,5.73,1.94,-3.9,27.5
2015-06-03 00:24:00,0.0,1.96076,0.00048,403.392,0.031,0.7181,0.0021,140.003,45.000,34057.42960,1.97492,406.954,32.626,45.068,45.000,0.00,0.09,-272.73,-272.79,-6,983,-5,23.5,19.1,-1.4,23.3,19.7,-1.2,5.73,1.95,-3.9,27.5
2015-06-03 00:25:00,0.0,1.96327,0.00256,403.373,0.036,0.7167,0.0024,140.005,45.000,34088.95024,1.97740,406.932,32.625,45.068,45.000,0.00,0.09,-272.72,-272.78,-6,984,-5,23.5,19.1,-1.4,23.3,19.7,-1.2,5.73,1.95,-3.9,27.5
2015-06-03 00:26:00,0.0,1.96236,0.00134,403.373,0.030,0.7195,0.0029,140.000,45.000,34113.48615,1.97657,406.940,32.625,45.068,45.000,0.00,0.09,-272.71,-272.78,-6,983,-5,23.5,19.1,-1.4,23.3,19.7,-1.2,5.73,1.94,-3.9,27.5
2015-06-03 00:27:00,0.0,1.96102,0.00031,403.365,0.032,0.7226,0.0021,140.000,45.000,34133.23232,1.97532,406.948,32.625,45.068,45.000,0.00,0.09,-272.72,-272.79,-6,983,-5,23.5,19.2,-1.3,23.3,19.8,-1.1,5.73,1.95,-3.9,27.6
2015-06-03 00:28:00,0.0,1.96171,0.00075,403.412,0.036,0.7237,0.0035,140.003,45.000,34152.48594,1.97587,407.003,32.625,45.068,45.000,0.00,0.09,-272.72,-272.78,-6,984,-5,23.5,19.2,-1.3,23.3,19.8,-1.1,5.73,1.94,-3.9,27.5
2015-06-03 00:29:00,0.0,1.96218,0.00133,403.375,0.030,0.7211,0.0053,140.002,45.000,34166.26378,1.97653,406.954,32.625,45.068,45.000,0.00,0.10,-272.71,-272.78,-6,983,-5,23.5,19.1,-1.3,23.3,19.8,-1.1,5.73,1.94,-3.9,27.5
2015-06-03 00:30:00,0.0,1.96158,0.00029,403.378,0.034,0.7199,0.0024,140.003,45.000,34180.32899,1.97577,406.951,32.638,45.068,45.000,0.00,0.10,-272.72,-272.78,-6,984,-5,23.5,19.1,-1.4,23.3,19.7,-1.2,5.73,1.94,-3.9,27.4
2015-06-03 00:31:00,0.0,1.96192,0.00033,403.359,0.029,0.7224,0.0028,139.999,45.000,34190.17091,1.97615,406.943,32.649,45.068,45.000,0.00,0.09,-272.73,-272.79,-6,984,-5,23.5,19.1,-1.3,23.3,19.7,-1.1,5.73,1.94,-3.9,27.5
2015-06-03 00:32:00,0.0,1.96203,0.00037,403.416,0.031,0.7178,0.0017,140.002,45.000,34203.31176,1.97623,406.979,32.630,45.068,45.000,0.00,0.10,-272.72,-272.78,-6,983,-5,23.6,19.0,-1.4,23.3,19.6,-1.2,5.73,1.94,-3.9,27.5
2015-06-03 00:33:00,0.0,1.96152,0.00037,403.445,0.033,0.7166,0.0023,140.000,45.000,34211.14474,1.97573,406.999,32.624,45.068,45.000,0.00,0.10,-272.72,-272.78,-6,984,-5,23.5,19.0,-1.5,23.3,19.6,-1.2,5.73,1.94,-3.8,27.5
2015-06-03 00:34:00,0.0,1.96126,0.00037,403.444,0.023,0.7154,0.0017,140.003,45.000,34219.86258,1.97537,406.993,32.606,45.068,45.000,0.00,0.09,-272.73,-272.78,-6,984,-5,23.5,18.9,-1.5,23.3,19.5,-1.2,5.73,1.94,-3.8,27.4
2015-06-03 00:35:00,0.0,1.96266,0.00102,403.421,0.032,0.7186,0.0017,140.001,45.000,34222.72810,1.97673,406.987,32.598,45.068,45.000,0.00,0.09,-272.73,-272.78,-6,983,-5,23.5,19.0,-1.4,23.3,19.6,-1.2,5.73,1.94,-3.8,27.5
2015-06-03 00:36:00,0.0,1.96265,0.00081,403.388,0.032,0.7141,0.0018,139.994,45.000,34227.24821,1.97675,406.932,32.588,45.068,45.000,0.00,0.10,-272.72,-272.77,-6,984,-5,23.5,18.9,-1.5,23.3,19.5,-1.3,5.73,1.94,-3.8,27.5
2015-06-03 00:37:00,0.0,1.96283,0.00045,403.351,0.026,0.7177,0.0023,139.999,45.000,34235.09217,1.97702,406.909,32.577,45.068,45.000,0.00,0.09,-272.72,-272.79,-7,984,-5,23.5,19.0,-1.4,23.3,19.6,-1.3,5.73,1.94,-3.8,27.6
2015-06-03 00:38:00,0.0,1.96349,0.00084,403.379,0.031,0.7190,0.0026,140.001,45.000,34235.02881,1.97770,406.948,32.572,45.068,45.000,0.00,0.09,-272.72,-272.79,-6,983,-5,23.5,19.0,-1.5,23.3,19.6,-1.2,5.73,1.94,-3.8,27.5
2015-06-03 00:39:00,0.0,1.96212,0.00043,403.369,0.037,0.7163,0.0021,140.001,45.000,34239.33670,1.97628,406.924,32.565,45.068,45.000,0.00,0.09,-272.71,-272.77,-6,984,-5,23.5,18.9,-1.5,23.3,19.5,-1.3,5.73,1.94,-3.8,27.6
2015-06-03 00:40:00,0.0,1.96271,0.00082,403.361,0.031,0.7189,0.0029,139.999,45.000,34243.62271,1.97683,406.927,32.563,45.068,45.000,0.00,0.09,-272.72,-272.78,-6,984,-5,23.5,19.0,-1.4,23.3,19.6,-1.2,5.73,1.94,-3.8,27.5
2015-06-03 00:41:00,0.0,1.96308,0.00034,403.395,0.040,0.7243,0.0020,139.998,45.000,34244.33453,1.97744,406.987,32.566,45.068,45.000,0.00,0.09,-272.73,-272.79,-6,983,-5,23.5,19.2,-1.3,23.3,19.7,-1.1,5.73,1.95,-3.8,27.5
2015-06-03 00:42:00,0.0,1.96394,0.00091,403.381,0.035,0.7271,0.0019,139.999,45.000,34247.42892,1.97822,406.990,32.563,45.068,45.000,0.00,0.09,-272.72,-272.78,-6,984,-5,23.5,19.2,-1.3,23.3,19.8,-1.1,5.73,1.94,-3.8,27.5
2015-06-03 00:43:00,0.0,1.96480,0.00077,403.330,0.035,0.7299,0.0027,139.999,45.000,34248.60762,1.97930,406.951,32.561,45.068,45.000,0.00,0.10,-272.72,-272.78,-6,984,-5,23.5,19.3,-1.2,23.3,19.9,-1.0,5.73,1.95,-3.8,27.5
2015-06-03 00:44:00,0.0,1.96339,0.00061,403.378,0.062,0.7373,0.0034,139.995,45.000,34248.57888,1.97797,407.038,32.563,45.068,45.000,0.00,0.09,-272.72,-272.79,-6,984,-5,23.5,19.5,-1.1,23.3,20.1,-0.9,5.73,1.94,-3.8,27.5
2015-06-03 00:45:00,0.0,1.96343,0.00059,403.300,0.034,0.7424,0.0020,139.997,45.000,34249.75928,1.97813,406.985,32.564,45.068,45.000,0.00,0.09,-272.72,-272.79,-6,984,-5,23.5,19.7,-1.0,23.3,20.2,-0.8,5.73,1.94,-3.8,27.5
2015-06-03 00:46:00,0.0,1.96309,0.00094,403.263,0.020,0.7441,0.0012,139.999,45.000,34252.05233,1.97788,406.956,32.572,45.068,45.000,0.00,0.10,-272.72,-272.77,-6,984,-5,23.5,19.7,-0.9,23.3,20.3,-0.8,5.73,1.94,-3.8,27.5
2015-06-03 00:47:00,0.0,1.96148,0.00035,403.342,0.054,0.7469,0.0020,140.001,45.000,34254.07586,1.97624,407.050,32.574,45.068,45.000,0.00,0.09,-272.72,-272.78,-6,984,-5,23.5,19.7,-0.9,23.3,20.3,-0.7,5.73,1.95,-3.8,27.4
2015-06-03 00:48:00,0.0,1.96134,0.00049,403.275,0.031,0.7407,0.0020,139.999,45.000,34253.85015,1.97600,406.953,32.567,45.068,45.000,0.00,0.09,-272.73,-272.78,-6,984,-5,23.5,19.6,-1.0,23.3,20.2,-0.8,5.73,1.95,-3.8,27.4
2015-06-03 00:49:00,0.0,1.96170,0.00031,403.334,0.036,0.7359,0.0014,140.000,45.000,34255.89666,1.97623,406.987,32.573,45.068,45.000,0.00,0.10,-272.72,-272.78,-6,984,-5,23.5,19.4,-1.1,23.3,20.1,-0.9,5.73,1.94,-3.8,27.4
2015-06-03 00:50:00,0.0,1.96178,0.00044,403.390,0.036,0.7328,0.0017,140.004,45.000,34259.53429,1.97625,407.026,32.591,45.068,45.000,0.00,0.10,-272.72,-272.78,-6,984,-5,23.6,19.3,-1.2,23.3,20.0,-1.0,5.73,1.95,-3.8,27.5
2015-06-03 00:51:00,0.0,1.96200,0.00028,403.419,0.054,0.7314,0.0033,139.996,45.000,34255.75583,1.97640,407.050,32.594,45.068,45.000,0.00,0.09,-272.72,-272.79,-6,984,-5,23.5,19.3,-1.2,23.3,19.9,-1.0,5.73,1.95,-3.8,27.4
2015-06-03 00:52:00,0.0,1.96236,0.00027,403.371,0.028,0.7223,0.0027,140.001,45.000,34257.41065,1.97663,406.961,32.609,45.068,45.000,0.00,0.10,-272.72,-272.78,-6,984,-5,23.6,19.1,-1.4,23.3,19.7,-1.2,5.73,1.94,-3.8,27.4
2015-06-03 00:53:00,0.0,1.96244,0.00029,403.345,0.039,0.7230,0.0017,140.003,45.000,34257.11505,1.97670,406.929,32.625,45.068,45.000,0.00,0.09,-272.71,-272.78,-6,984,-5,23.6,19.1,-1.3,23.3,19.6,-1.2,5.73,1.95,-3.8,27.5
2015-06-03 00:54:00,0.0,1.96241,0.00041,403.372,0.038,0.7296,0.0023,139.997,45.000,34256.32997,1.97686,406.994,32.625,45.068,45.000,0.00,0.09,-272.72,-272.78,-6,984,-5,23.6,19.3,-1.2,23.3,19.8,-1.1,5.73,1.95,-3.8,27.4
2015-06-03 00:55:00,0.0,1.96237,0.00075,403.453,0.086,0.7344,0.0020,139.998,45.000,34258.96441,1.97677,407.094,32.625,45.068,45.000,0.00,0.09,-272.73,-272.78,-6,984,-5,23.5,19.4,-1.2,23.3,19.9,-1.0,5.73,1.94,-3.8,27.5
2015-06-03 00:56:00,0.0,1.96251,0.00070,403.471,0.083,0.7327,0.0019,139.994,45.000,34257.10887,1.97715,407.112,32.625,45.068,45.000,0.00,0.09,-272.72,-272.78,-6,984,-5,23.6,19.3,-1.2,23.3,19.9,-1.0,5.73,1.95,-3.8,27.5
2015-06-03 00:57:00,0.0,1.96213,0.00026,403.528,0.097,0.7314,0.0020,139.998,45.000,34258.75246,1.97654,407.160,32.625,45.068,45.000,0.00,0.09,-272.72,-272.78,-6,984,-5,23.5,19.3,-1.2,23.3,19.9,-1.0,5.73,1.95,-3.8,27.5
2015-06-03 00:58:00,0.0,1.96208,0.00043,403.386,0.030,0.7275,0.0018,139.999,45.000,34258.41537,1.97645,406.997,32.629,45.068,45.000,0.00,0.10,-272.72,-272.79,-6,984,-5,23.6,19.2,-1.3,23.3,19.8,-1.1,5.73,1.95,-3.8,27.4
2015-06-03 00:59:00,0.0,1.96229,0.00045,403.428,0.052,0.7279,0.0022,139.995,45.000,34257.23891,1.97663,407.039,32.627,45.068,45.000,0.00,0.09,-272.72,-272.78,-6,984,-5,23.5,19.2,-1.3,23.3,19.8,-1.1,5.73,1.95,-3.8,27.4
2015-06-03 01:00:00,0.0,1.96270,0.00035,403.533,0.036,0.7262,0.0019,140.001,45.000,34256.78466,1.97706,407.135,32.630,45.068,45.000,0.00,0.09,-272.72,-272.78,-6,985,-5,23.5,19.1,-1.3,23.3,19.7,-1.1,5.73,1.95,-3.8,27.4
2015-06-03 01:01:00,0.0,1.96341,0.00068,403.466,0.037,0.7293,0.0032,139.996,45.000,34257.69952,1.97771,407.088,32.625,45.068,45.000,0.00,0.09,-272.73,-272.78,-6,984,-5,23.5,19.2,-1.3,23.3,19.8,-1.1,5.73,1.94,-3.8,27.4
2015-06-03 01:02:00,0.0,1.96326,0.00077,403.416,0.053,0.7255,0.0015,140.000,45.000,34260.21020,1.97771,407.019,32.626,45.068,45.000,0.00,0.10,-272.72,-272.78,-6,984,-5,23.5,19.2,-1.3,23.3,19.7,-1.1,5.73,1.95,-3.8,27.4
2015-06-03 01:03:00,0.0,1.96283,0.00067,403.479,0.075,0.7293,0.0021,139.999,45.000,34260.15583,1.97730,407.094,32.625,45.068,45.000,0.00,0.10,-272.72,-272.78,-6,984,-5,23.6,19.2,-1.2,23.3,19.8,-1.1,5.73,1.95,-3.8,27.4
2015-06-03 01:04:00,0.0,1.96336,0.00153,403.558,0.051,0.7314,0.0020,139.997,45.000,34258.63317,1.97755,407.193,32.629,45.068,45.000,0.00,0.09,-272.72,-272.78,-6,985,-5,23.6,19.3,-1.2,23.3,19.8,-1.0,5.73,1.95,-3.8,27.4
2015-06-03 01:05:00,0.0,1.96637,0.00055,403.530,0.025,0.7295,0.0018,139.997,45.000,34259.56466,1.98083,407.150,32.634,45.068,45.000,0.00,0.09,-272.73,-272.78,-6,984,-5,23.6,19.2,-1.3,23.3,19.8,-1.1,5.73,1.95,-3.7,27.5
2015-06-03 01:06:00,0.0,1.96406,0.00056,403.421,0.043,0.7343,0.0027,140.002,45.000,34261.73743,1.97873,407.070,32.639,45.068,45.000,0.00,0.09,-272.72,-272.78,-6,985,-5,23.6,19.4,-1.1,23.3,19.9,-1.0,5.73,1.95,-3.7,27.5
2015-06-03 01:07:00,0.0,1.96366,0.00053,403.394,0.022,0.7399,0.0014,139.996,45.000,34260.54917,1.97821,407.066,32.642,45.068,45.000,0.00,0.09,-272.72,-272.78,-6,984,-5,23.6,19.5,-1.0,23.3,20.1,-0.8,5.73,1.95,-3.7,27.5
2015-06-03 01:08:00,0.0,1.96294,0.00072,403.414,0.040,0.7414,0.0029,140.001,45.000,34260.37525,1.97770,407.094,32.665,45.068,45.000,0.00,0.09,-272.73,-272.79,-6,984,-5,23.5,19.6,-1.0,23.3,20.1,-0.9,5.73,1.96,-3.8,27.5
2015-06-03 01:09:00,0.0,1.96242,0.00035,403.449,0.032,0.7475,0.0027,140.001,45.000,34259.62206,1.97720,407.160,32.667,45.068,45.000,0.00,0.09,-272.72,-272.78,-6,985,-5,23.5,19.7,-0.9,23.3,20.3,-0.7,5.73,1.96,-3.7,27.5
2015-06-03 01:10:00,0.0,1.96238,0.00052,403.506,0.026,0.7368,0.0029,140.002,45.000,34262.43788,1.97692,407.167,32.682,45.068,45.000,0.00,0.10,-272.72,-272.78,-6,984,-5,23.5,19.4,-1.1,23.3,20.1,-0.9,5.73,1.95,-3.8,27.4
2015-06-03 01:11:00,0.0,1.96250,0.00039,403.539,0.042,0.7276,0.0050,139.998,45.000,34260.40682,1.97691,407.150,32.684,45.068,45.000,0.00,0.09,-272.72,-272.79,-6,984,-5,23.5,19.1,-1.3,23.3,19.8,-1.0,5.73,1.95,-3.8,27.5
2015-06-03 01:12:00,0.0,1.96262,0.00044,403.552,0.038,0.7187,0.0022,139.999,45.000,34261.39736,1.97685,407.120,32.683,45.068,45.000,0.00,0.09,-272.72,-272.79,-6,985,-5,23.5,18.9,-1.5,23.3,19.5,-1.2,5.73,1.95,-3.7,27.5
2015-06-03 01:13:00,0.0,1.96287,0.00031,403.588,0.071,0.7239,0.0016,140.000,45.000,34262.46648,1.97709,407.182,32.682,45.068,45.000,0.00,0.10,-272.71,-272.78,-6,984,-5,23.6,19.1,-1.3,23.3,19.6,-1.2,5.73,1.95,-3.7,27.5
2015-06-03 01:14:00,0.0,1.96347,0.00035,403.581,0.033,0.7224,0.0033,139.999,45.000,34262.45439,1.97774,407.170,32.679,45.068,45.000,0.00,0.09,-272.72,-272.78,-6,984,-5,23.6,19.0,-1.4,23.3,19.6,-1.2,5.73,1.95,-3.7,27.5
2015-06-03 01:15:00,0.0,1.96376,0.00037,403.553,0.041,0.7139,0.0020,140.001,45.000,34265.25226,1.97786,407.098,32.661,45.068,45.000,0.00,0.09,-272.72,-272.78,-6,985,-5,23.6,18.8,-1.6,23.3,19.4,-1.3,5.73,1.95,-3.7,27.4
2015-06-03 01:16:00,0.0,1.96419,0.00037,403.624,0.050,0.7142,0.0021,139.999,45.000,34262.51020,1.97825,407.164,32.674,45.068,45.000,0.00,0.10,-272.72,-272.77,-6,984,-5,23.6,18.8,-1.6,23.3,19.3,-1.4,5.73,1.95,-3.7,27.4
2015-06-03 01:17:00,0.0,1.96379,0.00059,403.594,0.020,0.7165,0.0026,139.997,45.000,34262.04167,1.97802,407.152,32.674,45.068,45.000,0.00,0.09,-272.73,-272.78,-6,984,-5,23.6,18.9,-1.5,23.3,19.4,-1.3,5.73,1.95,-3.7,27.5
2015-06-03 01:18:00,0.0,1.96343,0.00045,403.585,0.041,0.7245,0.0029,139.998,45.000,34263.27669,1.97773,407.182,32.681,45.068,45.000,0.00,0.09,-272.73,-272.78,-6,985,-5,23.6,19.1,-1.4,23.3,19.6,-1.2,5.73,1.95,-3.7,27.5
2015-06-03 01:19:00,0.0,1.96381,0.00046,403.594,0.027,0.7223,0.0020,140.001,45.000,34262.10199,1.97805,407.179,32.682,45.068,45.000,0.00,0.10,-272.72,-272.78,-6,984,-5,23.6,19.0,-1.4,23.3,19.6,-1.2,5.73,1.95,-3.7,27.4
2015-06-03 01:20:00,0.0,1.96399,0.00027,403.535,0.040,0.7216,0.0018,139.998,45.000,34262.94078,1.97828,407.120,32.676,45.068,45.000,0.00,0.09,-272.71,-272.79,-6,984,-5,23.6,19.0,-1.4,23.3,19.6,-1.2,5.73,1.95,-3.7,27.4
2015-06-03 01:21:00,0.0,1.96363,0.00042,403.493,0.034,0.7220,0.0023,140.003,45.000,34266.18455,1.97790,407.075,32.688,45.068,45.000,0.00,0.09,-272.72,-272.78,-7,985,-5,23.6,19.0,-1.4,23.3,19.6,-1.2,5.73,1.95,-3.7,27.5
2015-06-03 01:22:00,0.0,1.96310,0.00025,403.525,0.032,0.7248,0.0024,139.999,45.000,34264.46794,1.97745,407.125,32.688,45.068,45.000,0.00,0.09,-272.72,-272.78,-6,984,-5,23.6,19.1,-1.3,23.3,19.6,-1.2,5.73,1.95,-3.7,27.5
2015-06-03 01:23:00,0.0,1.96368,0.00041,403.487,0.041,0.7249,0.0021,140.002,45.000,34265.41621,1.97796,407.087,32.689,45.068,45.000,0.00,0.10,-272.72,-272.77,-6,984,-5,23.6,19.1,-1.3,23.3,19.7,-1.1,5.73,1.95,-3.8,27.5
2015-06-03 01:24:00,0.0,1.96420,0.00031,403.480,0.034,0.7282,0.0019,140.004,45.000,34263.85552,1.97859,407.092,32.688,45.068,45.000,0.00,0.09,-272.72,-272.79,-7,985,-5,23.6,19.2,-1.3,23.3,19.7,-1.1,5.73,1.94,-3.7,27.5
2015-06-03 01:25:00,0.0,1.96417,0.00034,403.466,0.032,0.7320,0.0023,140.002,45.000,34264.92101,1.97863,407.101,32.688,45.068,45.000,0.00,0.09,-272.73,-272.79,-6,984,-5,23.6,19.2,-1.2,23.3,19.8,-1.0,5.73,1.94,-3.7,27.4
2015-06-03 01:26:00,0.0,1.96443,0.00033,403.516,0.025,0.7259,0.0025,140.000,45.000,34264.55932,1.97881,407.119,32.691,45.068,45.000,0.00,0.10,-272.72,-272.78,-6,984,-5,23.6,19.1,-1.3,23.3,19.7,-1.1,5.73,1.94,-3.7,27.4
2015-06-03 01:27:00,0.0,1.96416,0.00034,403.488,0.033,0.7238,0.0018,140.001,45.000,34265.95668,1.97845,407.082,32.690,45.068,45.000,0.00,0.10,-272.71,-272.78,-7,984,-5,23.6,19.0,-1.4,23.3,19.6,-1.2,5.73,1.93,-3.7,27.4
2015-06-03 01:28:00,0.0,1.96492,0.00038,403.476,0.028,0.7242,0.0021,139.998,45.000,34263.16640,1.97922,407.069,32.694,45.068,45.000,0.00,0.09,-272.72,-272.79,-6,984,-5,23.6,19.1,-1.4,23.3,19.6,-1.2,5.73,1.95,-3.7,27.5
2015-06-03 01:29:00,0.0,1.96465,0.00039,403.518,0.040,0.7232,0.0023,140.003,45.000,34265.22207,1.97899,407.110,32.713,45.068,45.000,0.00,0.10,-272.72,-272.78,-6,985,-5,23.6,19.0,-1.4,23.3,19.6,-1.2,5.73,1.94,-3.7,27.4
2015-06-03 01:30:00,0.0,1.96441,0.00028,403.532,0.025,0.7228,0.0022,140.001,45.000,34264.76296,1.97868,407.118,32.732,45.068,45.000,0.00,0.09,-272.72,-272.77,-6,984,-5,23.6,19.0,-1.4,23.3,19.6,-1.2,5.73,1.94,-3.7,27.4
2015-06-03 01:31:00,0.0,1.96441,0.00042,403.515,0.033,0.7256,0.0019,140.003,45.000,34265.93686,1.97877,407.118,32.744,45.068,45.000,0.00,0.09,-272.72,-272.78,-6,984,-5,23.6,19.1,-1.3,23.3,19.6,-1.2,5.73,1.94,-3.7,27.5
2015-06-03 01:32:00,0.0,1.96452,0.00038,403.532,0.034,0.7305,0.0024,139.998,45.000,34265.75465,1.97896,407.159,32.747,45.068,45.000,0.00,0.09,-272.73,-272.78,-6,985,-5,23.6,19.2,-1.2,23.3,19.8,-1.1,5.73,1.94,-3.7,27.5
2015-06-03 01:33:00,0.0,1.96465,0.00047,403.526,0.039,0.7319,0.0025,140.000,45.000,34265.18334,1.97911,407.160,32.745,45.068,45.000,0.00,0.10,-272.72,-272.78,-6,984,-5,23.6,19.3,-1.2,23.3,19.8,-1.0,5.73,1.94,-3.7,27.5
2015-06-03 01:34:00,0.0,1.96384,0.00040,403.482,0.028,0.7344,0.0018,140.002,45.000,34268.01553,1.97842,407.129,32.744,45.068,45.000,0.00,0.09,-272.72,-272.78,-7,985,-5,23.6,19.3,-1.2,23.3,19.9,-1.0,5.73,1.94,-3.7,27.5
2015-06-03 01:35:00,0.0,1.96412,0.00041,403.474,0.024,0.7349,0.0013,139.996,45.000,34265.67567,1.97861,407.121,32.750,45.068,45.000,0.00,0.09,-272.72,-272.79,-7,984,-5,23.6,19.3,-1.2,23.3,19.9,-1.0,5.73,1.94,-3.7,27.5
2015-06-03 01:36:00,0.0,1.96573,0.00141,403.498,0.034,0.7300,0.0050,139.998,45.000,34266.98134,1.98017,407.127,32.750,45.068,45.000,0.00,0.09,-272.72,-272.78,-6,984,-5,23.6,19.2,-1.3,23.3,19.8,-1.1,5.73,1.94,-3.7,27.5
2015-06-03 01:37:00,0.0,1.96472,0.00043,403.478,0.046,0.7296,0.0025,140.000,45.000,34267.32795,1.97917,407.099,32.750,45.068,45.000,0.00,0.09,-272.72,-272.78,-7,985,-5,23.6,19.2,-1.3,23.3,19.7,-1.1,5.73,1.93,-3.7,27.4
2015-06-03 01:38:00,0.0,1.96432,0.00029,403.467,0.026,0.7308,0.0021,140.000,45.000,34269.12153,1.97879,407.093,32.750,45.068,45.000,0.00,0.09,-272.72,-272.79,-7,984,-5,23.7,19.2,-1.2,23.3,19.8,-1.1,5.73,1.94,-3.7,27.5
2015-06-03 01:39:00,0.0,1.96494,0.00036,403.497,0.026,0.7285,0.0019,139.999,45.000,34268.77960,1.97932,407.116,32.753,45.068,45.000,0.00,0.09,-272.73,-272.78,-6,984,-5,23.6,19.1,-1.3,23.3,19.7,-1.1,5.73,1.94,-3.7,27.4
2015-06-03 01:40:00,0.0,1.96507,0.00024,403.458,0.027,0.7272,0.0023,139.996,45.000,34267.57206,1.97947,407.067,32.754,45.068,45.000,0.00,0.10,-272.72,-272.78,-7,985,-5,23.6,19.1,-1.3,23.3,19.7,-1.1,5.73,1.93,-3.7,27.4
2015-06-03 01:41:00,0.0,1.96506,0.00030,403.476,0.031,0.7294,0.0021,140.000,45.000,34268.97679,1.97945,407.099,32.754,45.068,45.000,0.00,0.09,-272.73,-272.78,-6,984,-5,23.6,19.1,-1.2,23.3,19.7,-1.1,5.73,1.95,-3.7,27.5
2015-06-03 01:42:00,0.0,1.96543,0.00041,403.491,0.027,0.7332,0.0029,140.000,45.000,34266.93099,1.97996,407.128,32.764,45.068,45.000,0.00,0.10,-272.72,-272.78,-6,984,-5,23.6,19.2,-1.2,23.4,19.8,-1.0,5.73,1.94,-3.7,27.5
2015-06-03 01:43:00,0.0,1.96542,0.00044,403.456,0.030,0.7334,0.0017,140.002,45.000,34268.82993,1.97990,407.099,32.781,45.068,45.000,0.00,0.10,-272.72,-272.78,-6,984,-5,23.6,19.2,-1.2,23.4,19.9,-1.0,5.73,1.94,-3.7,27.5
2015-06-03 01:44:00,0.0,1.96543,0.00044,403.472,0.043,0.7310,0.0026,139.999,45.000,34269.71421,1.97991,407.101,32.800,45.068,45.000,0.00,0.09,-272.72,-272.78,-6,985,-5,23.6,19.2,-1.2,23.4,19.7,-1.1,5.73,1.95,-3.7,27.5
2015-06-03 01:45:00,0.0,1.96533,0.00046,403.454,0.034,0.7308,0.0021,140.002,45.000,34269.08672,1.97981,407.079,32.798,45.068,45.000,0.00,0.09,-272.72,-272.78,-7,985,-5,23.7,19.2,-1.2,23.4,19.7,-1.1,5.73,1.95,-3.7,27.5
2015-06-03 01:46:00,0.0,1.96552,0.00043,403.465,0.026,0.7287,0.0026,140.000,45.000,34267.41628,1.97987,407.085,32.805,45.068,45.000,0.00,0.09,-272.72,-272.77,-6,984,-5,23.7,19.1,-1.3,23.4,19.7,-1.0,5.73,1.95,-3.7,27.5